Orbital Elements at Epoch 2459200.5 (2020-Dec-17.0) TDB
Reference: JPL 15 (heliocentric ecliptic J2000)
Element | Value | Uncertainty (1-sigma) | Units |
e | .2839728832274749 | 7.8119e-08 | |
a | 2.547950419731384 | 1.1929e-08 | au |
q | 1.824401592719608 | 2.0533e-07 | au |
i | 3.42297110056673 | 6.3056e-06 | deg |
node | 312.6984280634401 | 6.6922e-05 | deg |
peri | 13.7660173181543 | 6.7806e-05 | deg |
M | 101.0679703241434 | 1.1961e-05 | deg |
tp | 2458783.442505781885 (2019-Oct-26.94250578) | 4.7052e-05 | TDB |
period | 1485.541833253332 4.07 | 1.0432e-05 2.856e-08 | d yr |
n | .2423358211404932 | 1.7018e-09 | deg/d |
Q | 3.27149924674316 | 1.5316e-08 | au |
|
| | Orbit Determination Parameters
Additional Information
|